Regional Weather Roundup
Issued by NWS Portland, ME

Home | Current Version | Previous Version | Text Only | Print | Product List | Glossary On
Versions: 1 2 3 4 5 6 7 8 9 10 11 12 13 14 15 16 17 18 19 20 21 22 23 24 25 26 27 28 29 30 31 32 33 34 35 36 37 38 39 40 41 42 43 44 45 46 47 48 49 50
000
ASUS41 KGYX 290410
RWRGYX
WEATHER ROUNDUP FOR MAINE AND NEW HAMPSHIRE
NATIONAL WEATHER SERVICE GRAY ME
1200 AM EDT WED JUL 29 2015

MEZ002-005-006-010-012-015-018-020-021-024-026-027-029-290500-
MAINE

CITY           SKY/WX    TMP DP  RH WIND       PRES   REMARKS
PORTLAND       PTCLDY    69  65  86 SW3       29.94S
SANFORD        PTCLDY    64  59  82 SW3       29.96S
BAR HARBOR     PTCLDY    63  63 100 CALM      29.93S
WISCASSET      CLEAR     63  62  97 CALM      29.95S
ROCKLAND       FAIR      63  63 100 W6        29.93S
FRYEBURG       CLEAR     64  64 100 CALM      29.96F
LEWISTONAUBURN PTCLDY    66  63  88 S3        29.94S
AUGUSTA        PTCLDY    67  64  90 S5        29.94S
BANGOR         FOG       63  62  97 S3        29.93S VSB 1/2
GREENVILLE       N/A     66  57  72 CALM      29.95S
MILLINOCKET    PTCLDY    68  59  73 N7        29.93R
HOULTON        CLEAR     58  56  93 CALM      29.90R
PRESQUE ISLE   CLEAR     57  54  88 CALM      29.91S
FRENCHVILLE    CLEAR     60  53  77 NW5       29.93R
CARIBOU        CLEAR     64  54  69 NW3       29.91R
$$

NHZ002-005-008-009-011-012-014-290500-
NEW HAMPSHIRE

CITY           SKY/WX    TMP DP  RH WIND       PRES   REMARKS
PORTSMOUTH     PTCLDY    69  65  90 CALM      29.93S
ROCHESTER      PTCLDY    68  63  84 CALM      29.95S
MANCHESTER     CLEAR     76  67  73 W3        29.95S
CONCORD        CLEAR     67  64  90 CALM      29.97S
LACONIA        CLEAR     70  63  78 CALM      29.97R
PLYMOUTH       FAIR      64  64 100 CALM      29.99R FOG
BERLIN         PTCLDY    60  57  89 CALM      30.00R
WHITEFIELD     CLEAR     62  59  90 SE3       30.00R
JAFFREY        CLEAR     65  64  97 CALM      30.01F
KEENE          CLEAR     66  63  88 CALM      29.99S
LEBANON        CLEAR     66  63  90 CALM      29.98S
MT WASHINGTON  PTCLDY    54  48  82 NW25        N/A
$$

VTZ005-007-008-290500-
VERMONT

CITY           SKY/WX    TMP DP  RH WIND       PRES   REMARKS
ST JOHNSBURY     N/A     68  64  87 MISG      29.97S
MONTPELIER     CLEAR     65  62  90 CALM      30.04R
BURLINGTON     CLEAR     72  67  84 CALM      29.96R
$$

MAZ007-012-024-CTZ003-RIZ002-NYZ038-NYZ072-290500-
SOUTHERN NEW ENGLAND AND NY

CITY           SKY/WX    TMP DP  RH WIND       PRES   REMARKS
BOSTON         CLEAR     76  67  73 W6        29.96R
WORCESTER      CLEAR     70  61  73 W7        30.01S
NANTUCKET      FOG       70  69  97 SW6       29.96F VSB 1/4
PROVIDENCE     PTCLDY    72  69  90 CALM      29.97S
HARTFORD       PTCLDY    74  68  81 CALM      29.97R
ALBANY         PTCLDY    74  63  68 SW7       29.97S
NEW YORK CITY  PTCLDY    83  69  62 SW8       29.96S
$$

ANZ081-ANZ082-ANZ150-NHZ014-MEZ023>029-290500-
COASTAL MARINE OBSERVATIONS

STATION/POSITION TIME  TEMP    WIND        PRES    WAVE
                       AIR SEA DIR/SP/G            HT/PER
                 (UTC) (F)     (DEG/KT/KT) (MB)    (FT/S)
MOUNT DESERT ROC 0400   57     250/  8/  8 1013.7R
MATINICUS ROCK   0300   60     220/ 17/ 17 1013.4F
ISLE OF SHOALS   0300   71     170/  6/  7 1013.6S
JEFFREYS LEDGE   0303      63                N/A     2/10
CASHES LEDGE BUO 0350   66                 1013.6R   2/ 8
GEORGES BANK BUO 0350   66 67  330/  2/  4 1014.7F   4/ 8
$$

.............KEY..............
   WCI - WIND CHILL
   TC  - TEMPERATURE IN CELSIUS
   VSB - VISIBILITY IN MILES
   HX  - HEAT INDEX
   FAIR- INDICATES FEW OR NO CLOUDS BELOW 12,000 FT, WITH NO
         SIGNIFICANT WEATHER AND/OR OBSTRUCTIONS TO VISIBILITY.





USA.gov is the U.S. government's official web portal to all federal, state and local government web resources and services.